TimeCST,TemperatureF,Dew PointF,Humidity,Sea Level PressureIn,VisibilityMPH,Wind Direction,Wind SpeedMPH,Gust SpeedMPH,PrecipitationIn,Events,Conditions,WindDirDegrees,DateUTC
12:15 AM,41.0,37.4,87,30.01,0.2,SE,5.8,-,N/A,Fog,Fog,130,2012-12-03 06:15:00
12:35 AM,41.0,37.4,87,30.01,0.2,SE,4.6,-,N/A,Fog,Fog,130,2012-12-03 06:35:00
12:55 AM,41.0,37.4,87,30.01,0.2,ESE,4.6,-,N/A,Fog,Fog,110,2012-12-03 06:55:00
1:15 AM,41.0,37.4,87,30.00,0.2,ESE,5.8,-,N/A,Fog,Fog,110,2012-12-03 07:15:00
1:35 AM,41.0,39.2,93,29.99,0.2,SE,6.9,-,N/A,Fog,Fog,130,2012-12-03 07:35:00
1:55 AM,41.0,39.2,93,29.99,0.2,ESE,5.8,-,N/A,Fog,Fog,120,2012-12-03 07:55:00
2:15 AM,41.0,39.2,93,29.99,0.2,SE,5.8,-,N/A,Fog,Fog,130,2012-12-03 08:15:00
2:35 AM,41.0,39.2,93,29.99,0.2,SE,5.8,-,N/A,Fog,Fog,130,2012-12-03 08:35:00
2:55 AM,41.0,41.0,100,29.98,0.2,SE,4.6,-,N/A,Fog,Fog,130,2012-12-03 08:55:00
3:15 AM,42.8,41.0,93,29.97,0.2,SE,4.6,-,N/A,Fog,Fog,130,2012-12-03 09:15:00
3:35 AM,42.8,41.0,93,29.96,0.2,SE,4.6,-,N/A,Fog,Fog,130,2012-12-03 09:35:00
3:55 AM,42.8,41.0,93,29.95,0.5,SE,3.5,-,N/A,Fog,Fog,130,2012-12-03 09:55:00
4:15 AM,42.8,41.0,93,29.94,0.5,SE,5.8,-,N/A,Fog,Fog,140,2012-12-03 10:15:00
4:55 AM,42.8,41.0,93,29.92,0.2,SE,6.9,-,N/A,Fog,Fog,130,2012-12-03 10:55:00
5:15 AM,42.8,41.0,93,29.92,0.2,ESE,4.6,-,N/A,Fog,Fog,120,2012-12-03 11:15:00
5:35 AM,42.8,41.0,93,29.91,0.5,SE,5.8,-,N/A,Fog,Fog,130,2012-12-03 11:35:00
5:55 AM,42.8,41.0,93,29.90,0.5,ESE,5.8,-,N/A,Fog,Fog,120,2012-12-03 11:55:00
6:15 AM,42.8,41.0,93,29.89,0.2,ESE,6.9,-,N/A,Fog,Fog,120,2012-12-03 12:15:00
6:35 AM,42.8,42.8,100,29.89,0.5,SE,5.8,-,N/A,Fog,Fog,130,2012-12-03 12:35:00
6:55 AM,44.6,42.8,93,29.88,0.2,ESE,6.9,-,N/A,Fog,Fog,120,2012-12-03 12:55:00
7:15 AM,44.6,42.8,93,29.87,0.2,ESE,6.9,-,N/A,Fog,Fog,120,2012-12-03 13:15:00
7:55 AM,44.6,42.8,93,29.86,0.2,ESE,6.9,-,N/A,Fog,Fog,120,2012-12-03 13:55:00
8:15 AM,44.6,42.8,93,29.84,0.2,ESE,6.9,-,N/A,Fog,Fog,120,2012-12-03 14:15:00
8:55 AM,46.4,44.6,93,29.82,0.2,ESE,5.8,-,N/A,Fog,Fog,120,2012-12-03 14:55:00
9:15 AM,46.4,46.4,100,29.81,0.2,ESE,6.9,-,N/A,Fog,Fog,120,2012-12-03 15:15:00
9:35 AM,48.2,46.4,93,29.81,0.2,SE,5.8,-,N/A,Fog,Fog,130,2012-12-03 15:35:00
9:55 AM,50.0,48.2,94,29.80,0.2,SE,9.2,-,N/A,Fog,Fog,130,2012-12-03 15:55:00
10:15 AM,50.0,48.2,94,29.79,0.2,SE,8.1,-,N/A,Fog,Fog,140,2012-12-03 16:15:00
10:35 AM,51.8,50.0,94,29.78,0.5,SE,9.2,-,N/A,Fog,Fog,140,2012-12-03 16:35:00
10:55 AM,53.6,51.8,94,29.77,0.5,SSE,9.2,-,N/A,Fog,Fog,150,2012-12-03 16:55:00
11:15 AM,53.6,51.8,94,29.75,0.5,SSE,9.2,16.1,N/A,Fog,Fog,150,2012-12-03 17:15:00
11:35 AM,53.6,51.8,94,29.73,0.8,SSE,9.2,-,N/A,,Overcast,150,2012-12-03 17:35:00
11:55 AM,53.6,53.6,100,29.72,1.0,SSE,13.8,-,N/A,,Overcast,160,2012-12-03 17:55:00
12:15 PM,55.4,53.6,94,29.71,1.2,South,9.2,-,N/A,,Overcast,170,2012-12-03 18:15:00
12:35 PM,55.4,53.6,94,29.70,1.2,South,9.2,-,N/A,,Overcast,170,2012-12-03 18:35:00
12:55 PM,55.4,55.4,100,29.68,1.2,South,9.2,-,N/A,,Overcast,170,2012-12-03 18:55:00
1:15 PM,57.2,55.4,94,29.67,1.0,South,11.5,-,N/A,,Overcast,170,2012-12-03 19:15:00
1:35 PM,59.0,55.4,88,29.66,1.5,South,13.8,19.6,N/A,,Overcast,170,2012-12-03 19:35:00
1:55 PM,59.0,57.2,94,29.66,1.5,South,10.4,-,N/A,,Overcast,180,2012-12-03 19:55:00
2:15 PM,59.0,57.2,94,29.66,1.2,South,9.2,-,N/A,,Overcast,190,2012-12-03 20:15:00
2:35 PM,59.0,57.2,94,29.66,1.0,South,8.1,-,N/A,Rain,Rain,190,2012-12-03 20:35:00
2:55 PM,59.0,57.2,94,29.66,1.0,South,9.2,-,N/A,,Light Drizzle,180,2012-12-03 20:55:00
3:15 PM,59.0,59.0,100,29.63,1.5,South,10.4,-,0.01,,Light Drizzle,170,2012-12-03 21:15:00
3:35 PM,60.8,59.0,94,29.64,3.0,South,11.5,21.9,0.01,,Overcast,190,2012-12-03 21:35:00
3:55 PM,60.8,59.0,94,29.64,4.0,South,11.5,18.4,0.01,,Overcast,190,2012-12-03 21:55:00
4:15 PM,60.8,59.0,94,29.64,7.0,South,11.5,-,N/A,,Overcast,190,2012-12-03 22:15:00
4:35 PM,60.8,59.0,94,29.65,5.0,SSW,12.7,18.4,N/A,,Overcast,200,2012-12-03 22:35:00
4:55 PM,60.8,59.0,94,29.64,7.0,SSW,9.2,-,N/A,,Overcast,200,2012-12-03 22:55:00
5:15 PM,60.8,59.0,94,29.64,5.0,South,11.5,16.1,N/A,,Overcast,190,2012-12-03 23:15:00
5:35 PM,60.8,59.0,94,29.63,5.0,South,9.2,-,N/A,,Overcast,190,2012-12-03 23:35:00
5:55 PM,60.8,59.0,94,29.63,7.0,South,10.4,-,N/A,,Mostly Cloudy,190,2012-12-03 23:55:00
6:15 PM,60.8,59.0,94,29.64,7.0,SSW,10.4,-,N/A,,Mostly Cloudy,200,2012-12-04 00:15:00
6:35 PM,60.8,59.0,94,29.63,7.0,SSW,10.4,16.1,N/A,,Overcast,200,2012-12-04 00:35:00
6:55 PM,60.8,59.0,94,29.65,5.0,SW,12.7,17.3,0.02,Rain,Heavy Rain,220,2012-12-04 00:55:00
7:15 PM,59.0,55.4,88,29.66,10.0,WSW,15.0,19.6,0.01,,Overcast,250,2012-12-04 01:15:00
7:35 PM,59.0,53.6,82,29.68,10.0,West,13.8,-,0.01,,Overcast,270,2012-12-04 01:35:00
7:55 PM,55.4,50.0,82,29.71,10.0,West,16.1,34.5,0.01,,Scattered Clouds,270,2012-12-04 01:55:00
8:15 PM,53.6,46.4,77,29.72,10.0,West,15.0,20.7,N/A,,Clear,280,2012-12-04 02:15:00
8:35 PM,53.6,44.6,72,29.73,10.0,West,17.3,26.5,N/A,,Clear,280,2012-12-04 02:35:00
8:55 PM,51.8,44.6,76,29.75,10.0,WNW,15.0,23.0,N/A,,Clear,290,2012-12-04 02:55:00
9:15 PM,51.8,42.8,71,29.76,10.0,West,12.7,24.2,N/A,,Clear,280,2012-12-04 03:15:00
9:35 PM,50.0,42.8,76,29.77,10.0,WNW,10.4,20.7,N/A,,Scattered Clouds,290,2012-12-04 03:35:00
9:55 PM,50.0,42.8,76,29.79,10.0,WNW,13.8,21.9,N/A,,Scattered Clouds,290,2012-12-04 03:55:00
10:15 PM,50.0,41.0,71,29.80,10.0,West,12.7,20.7,N/A,,Clear,280,2012-12-04 04:15:00
10:35 PM,48.2,41.0,76,29.81,10.0,WNW,13.8,17.3,N/A,,Clear,290,2012-12-04 04:35:00
10:55 PM,46.4,41.0,81,29.84,10.0,West,13.8,19.6,N/A,,Clear,280,2012-12-04 04:55:00
11:15 PM,46.4,39.2,76,29.85,10.0,West,9.2,-,N/A,,Clear,280,2012-12-04 05:15:00
11:35 PM,46.4,37.4,71,29.86,10.0,West,9.2,18.4,N/A,,Clear,280,2012-12-04 05:35:00
11:55 PM,44.6,37.4,76,29.87,10.0,West,9.2,17.3,N/A,,Clear,280,2012-12-04 05:55:00